When you browse on this site, cookies collect data to enhance your experience and personalize the content and advertising you see.
Visit our Privacy Policy to learn more. By continuing to use the site, you agree to this use of cookies and data.
  • In Portugal
  • List of Countries
  • For 7 days
  • Water Temperature
  • Weather Map
  • Weather Widgets
  • user-avatar
    Login

    Hourly Weather Ischgl

    Today, 17 September, Tuesday

    Time Temperature Precipitation Wind Pressure Humidity
    00:00 +6°C° 0 mm 1 mps 577 mmHg 91%
    01:00 +7°C° 0 mm 1 mps 577 mmHg 91%
    02:00 +7°C° 0 mm 1 mps 577 mmHg 91%
    03:00 +6°C° 0 mm 1 mps 576 mmHg 91%
    04:00 +6°C° 0 mm 1 mps 576 mmHg 91%
    05:00 +7°C° 0 mm 1 mps 576 mmHg 91%
    06:00 +7°C° 0 mm 1 mps 577 mmHg 91%
    07:00 +8°C° 0 mm 1 mps 577 mmHg 91%
    08:00 +10°C° 0.1 mm 1 mps 578 mmHg 82%
    09:00 +11°C° 0.1 mm 1 mps 579 mmHg 73%
    10:00 +13°C° 0.1 mm 1 mps 579 mmHg 64%
    11:00 +14°C° 0.1 mm 2 mps 579 mmHg 62%
    12:00 +14°C° 0.1 mm 2 mps 579 mmHg 59%
    13:00 +15°C° 0.1 mm 2 mps 580 mmHg 57%
    14:00 +14°C° 0.1 mm 2 mps 579 mmHg 60%
    15:00 +14°C° 0.1 mm 2 mps 579 mmHg 63%
    16:00 +13°C° 0.1 mm 3 mps 578 mmHg 66%
    17:00 +10°C° 0.1 mm 2 mps 578 mmHg 74%
    18:00 +8°C° 0.1 mm 2 mps 577 mmHg 83%
    19:00 +6°C° 0.1 mm 2 mps 576 mmHg 92%
    20:00 +7°C° 0 mm 1 mps 576 mmHg 92%
    21:00 +7°C° 0 mm 1 mps 576 mmHg 93%
    22:00 +6°C° 0 mm 1 mps 576 mmHg 93%
    23:00 +6°C° 0 mm 1 mps 576 mmHg 94%

    Tomorrow, 18 September, Wednesday

    Time Temperature Precipitation Wind Pressure Humidity
    00:00 +5°C° 0 mm 1 mps 576 mmHg 95%
    01:00 +5°C° 0 mm 1 mps 576 mmHg 95%
    02:00 +5°C° 0 mm 1 mps 576 mmHg 95%
    03:00 +5°C° 0 mm 1 mps 575 mmHg 96%
    04:00 +4°C° 0 mm 1 mps 575 mmHg 96%
    05:00 +5°C° 0 mm 1 mps 576 mmHg 95%
    06:00 +5°C° 0 mm 1 mps 576 mmHg 95%
    07:00 +5°C° 0 mm 1 mps 577 mmHg 95%
    08:00 +6°C° 0 mm 1 mps 577 mmHg 88%
    09:00 +7°C° 0 mm 1 mps 578 mmHg 82%
    10:00 +8°C° 0 mm 1 mps 578 mmHg 76%
    11:00 +9°C° 0 mm 1 mps 578 mmHg 71%
    12:00 +9°C° 0 mm 2 mps 579 mmHg 65%
    13:00 +12°C° 0 mm 2 mps 579 mmHg 60%
    14:00 +10°C° 0 mm 2 mps 579 mmHg 64%
    15:00 +10°C° 0 mm 2 mps 579 mmHg 67%
    16:00 +9°C° 0 mm 2 mps 578 mmHg 71%
    17:00 +8°C° 0 mm 2 mps 578 mmHg 78%
    18:00 +6°C° 0 mm 2 mps 577 mmHg 84%
    19:00 +5°C° 0 mm 2 mps 577 mmHg 91%
    20:00 +5°C° 0 mm 1 mps 577 mmHg 92%
    21:00 +5°C° 0 mm 1 mps 577 mmHg 93%
    22:00 +4°C° 0 mm 1 mps 577 mmHg 94%
    23:00 +2°C° 0 mm 0 mps 577 mmHg 94%

    Day after tomorrow, 19 September, Thursday

    Time Temperature Precipitation Wind Pressure Humidity
    00:00 +2°C° 0 mm 0 mps 576 mmHg 94%
    01:00 +1°C° 0 mm 0 mps 576 mmHg 94%
    02:00 +1°C° 0 mm 0 mps 576 mmHg 94%
    03:00 +1°C° 0 mm 0 mps 576 mmHg 94%
    04:00 0°C° 0 mm 0 mps 575 mmHg 94%
    05:00 +1°C° 0 mm 0 mps 576 mmHg 93%
    06:00 +2°C° 0 mm 1 mps 576 mmHg 91%
    07:00 +3°C° 0 mm 1 mps 576 mmHg 89%
    08:00 +5°C° 0 mm 1 mps 578 mmHg 76%
    09:00 +7°C° 0 mm 1 mps 579 mmHg 64%
    10:00 +7°C° 0 mm 2 mps 580 mmHg 51%
    11:00 +8°C° 0 mm 2 mps 580 mmHg 49%
    12:00 +9°C° 0 mm 2 mps 581 mmHg 47%
    13:00 +10°C° 0 mm 2 mps 581 mmHg 44%
    14:00 +10°C° 0 mm 2 mps 581 mmHg 47%
    15:00 +9°C° 0 mm 2 mps 581 mmHg 49%
    16:00 +9°C° 0 mm 2 mps 580 mmHg 52%
    17:00 +7°C° 0 mm 2 mps 579 mmHg 63%
    18:00 +5°C° 0 mm 1 mps 578 mmHg 74%
    19:00 +3°C° 0 mm 1 mps 577 mmHg 86%
    20:00 +2°C° 0 mm 1 mps 577 mmHg 86%
    21:00 +1°C° 0 mm 0 mps 577 mmHg 87%
    22:00 0°C° 0 mm 0 mps 577 mmHg 88%
    23:00 0°C° 0 mm 0 mps 577 mmHg 87%

    20 September, Friday

    Time Temperature Precipitation Wind Pressure Humidity
    00:00 0°C° 0 mm 0 mps 577 mmHg 85%
    01:00 0°C° 0 mm 0 mps 577 mmHg 84%
    02:00 0°C° 0 mm 0 mps 577 mmHg 83%
    03:00 0°C° 0 mm 0 mps 577 mmHg 82%
    04:00 0°C° 0 mm 0 mps 577 mmHg 81%
    05:00 +1°C° 0 mm 0 mps 578 mmHg 78%
    06:00 +2°C° 0 mm 0 mps 578 mmHg 75%
    07:00 +3°C° 0 mm 0 mps 578 mmHg 73%
    08:00 +6°C° 0 mm 1 mps 580 mmHg 60%
    09:00 +9°C° 0 mm 1 mps 581 mmHg 48%
    10:00 +11°C° 0 mm 1 mps 582 mmHg 36%
    11:00 +12°C° 0 mm 1 mps 582 mmHg 36%
    12:00 +12°C° 0 mm 2 mps 582 mmHg 35%
    13:00 +13°C° 0 mm 2 mps 583 mmHg 35%
    14:00 +13°C° 0 mm 2 mps 582 mmHg 38%
    15:00 +12°C° 0 mm 2 mps 582 mmHg 42%
    16:00 +12°C° 0 mm 2 mps 582 mmHg 45%
    17:00 +9°C° 0 mm 1 mps 580 mmHg 56%
    18:00 +7°C° 0 mm 1 mps 579 mmHg 68%
    19:00 +3°C° 0 mm 0 mps 578 mmHg 79%
    20:00 +3°C° 0 mm 0 mps 578 mmHg 80%
    21:00 +3°C° 0 mm 1 mps 578 mmHg 80%
    22:00 +3°C° 0 mm 1 mps 578 mmHg 81%
    23:00 +3°C° 0 mm 1 mps 578 mmHg 82%

    21 September, Saturday

    Time Temperature Precipitation Wind Pressure Humidity
    00:00 +3°C° 0 mm 1 mps 578 mmHg 84%
    01:00 +3°C° 0 mm 1 mps 578 mmHg 86%
    02:00 +3°C° 0 mm 1 mps 578 mmHg 87%
    03:00 +3°C° 0 mm 1 mps 577 mmHg 88%
    04:00 +3°C° 0 mm 1 mps 577 mmHg 89%
    05:00 +4°C° 0 mm 1 mps 577 mmHg 87%
    06:00 +4°C° 0 mm 1 mps 578 mmHg 85%
    07:00 +5°C° 0 mm 1 mps 578 mmHg 84%
    08:00 +7°C° 0 mm 1 mps 579 mmHg 73%
    09:00 +10°C° 0 mm 1 mps 580 mmHg 61%
    10:00 +12°C° 0 mm 1 mps 582 mmHg 50%
    11:00 +14°C° 0 mm 1 mps 582 mmHg 46%
    12:00 +15°C° 0 mm 1 mps 582 mmHg 42%
    13:00 +16°C° 0 mm 1 mps 582 mmHg 38%
    14:00 +15°C° 0 mm 1 mps 582 mmHg 40%
    15:00 +15°C° 0 mm 1 mps 582 mmHg 42%
    16:00 +15°C° 0 mm 2 mps 582 mmHg 44%
    17:00 +12°C° 0 mm 2 mps 580 mmHg 56%
    18:00 +9°C° 0 mm 1 mps 579 mmHg 69%
    19:00 +7°C° 0 mm 1 mps 578 mmHg 81%
    20:00 +6°C° 0 mm 1 mps 578 mmHg 83%
    21:00 +5°C° 0 mm 2 mps 578 mmHg 85%
    22:00 +4°C° 0 mm 2 mps 578 mmHg 87%
    23:00 +4°C° 0 mm 2 mps 578 mmHg 86%

    22 September, Sunday

    Time Temperature Precipitation Wind Pressure Humidity
    00:00 +4°C° 0 mm 2 mps 577 mmHg 86%
    01:00 +4°C° 0 mm 2 mps 577 mmHg 85%
    02:00 +3°C° 0 mm 2 mps 577 mmHg 83%
    03:00 +3°C° 0 mm 2 mps 577 mmHg 80%
    04:00 +3°C° 0 mm 2 mps 577 mmHg 77%
    05:00 +4°C° 0 mm 2 mps 577 mmHg 74%
    06:00 +4°C° 0 mm 2 mps 577 mmHg 71%
    07:00 +5°C° 0 mm 2 mps 578 mmHg 67%
    08:00 +7°C° 0 mm 2 mps 579 mmHg 62%
    09:00 +9°C° 0 mm 2 mps 580 mmHg 56%
    10:00 +13°C° 0 mm 2 mps 581 mmHg 50%
    11:00 +14°C° 0 mm 2 mps 582 mmHg 50%
    12:00 +15°C° 0 mm 2 mps 582 mmHg 50%
    13:00 +16°C° 0 mm 2 mps 582 mmHg 49%
    14:00 +15°C° 0.1 mm 2 mps 582 mmHg 53%
    15:00 +15°C° 0.1 mm 2 mps 582 mmHg 57%
    16:00 +14°C° 0.1 mm 2 mps 582 mmHg 61%
    17:00 +12°C° 0.3 mm 2 mps 581 mmHg 71%
    18:00 +10°C° 0.3 mm 1 mps 580 mmHg 81%
    19:00 +8°C° 0.3 mm 1 mps 579 mmHg 91%
    20:00 +8°C° 0.3 mm 1 mps 580 mmHg 91%
    21:00 +8°C° 0.3 mm 1 mps 580 mmHg 92%
    22:00 +9°C° 0.3 mm 1 mps 581 mmHg 92%
    23:00 +8°C° 0.1 mm 1 mps 580 mmHg 93%
    Show more